STARLINK-5730, 55611

Orbit data source: Space-Track

STARLINK-5730, 55611 is a payload satellite owned by SpaceX/Seattle (US) in LEO that was launched on Sun, 12 Feb 2023 UTC via an FALCON 9 launch vehicle from the Air Force Eastern Test Range (AFETR). Payload-class satellites include a variety of spacecraft equipped with specific instruments for various scientific and technological missions. These include communications satellites like Starlink; space stations such as the ISS; scientific satellites like the Hubble; Earth observation satellites from companies like Planet Labs, Umbra, and HawkEye 360; GPS; miniature CubeSats for education and research; and military/defense satellites.

Loading next visibility...
Identifier
55611, 2023-020AU
Orbit
LEO
Country
Flag of USUS
Related business
Manufacturer
SpaceX/Seattle
Mission
Operational Commercial Communications
Bus & Motor
STARLINK, Unknown motor
Mass
305 kg wet, ~290 kg dry
Launch date (UTC)
2023-02-12 (3 years ago)
Launch vehicle
FALCON 9
Launch site
Air Force Eastern Test Range (AFETR)
Object type
Payload
Rocket body
Debris
Shape & HBR
Box + 1 Pan, 10.1 m
Radar Cross Section
13.562 m², Large (>1 m²)

Expand to show TLE details & history
Last TLE update: 16 hours ago

TLE from 16 hours ago
0 STARLINK-5730
1 55611U 23020AU  25340.78430973  .00006950  00000-0  52919-3 0  9999
2 55611  43.0023 136.5117 0001287 265.4458  94.6237 15.02525633155091
Epoch: 2025-12-06T18:49Z
TLE epoch observation values (Epoch: 2025-12-06T18:49:24.360Z)
Latitude
-0.00005°
Longitude
138.35307°
Altitude
558.962 km
Speed
7.584 km/s
True Right ascension
09h 06m 02s
True Declination
0° 00' 00"
Sunlit
Object was in full shadow at epoch
Visualization orbit readout
Latitude
Unknown
Longitude
Unknown
Altitude
Unknown
Speed
Unknown
Apparent Right ascension
Unknown
Apparent Declination
Unknown
Sunlit
N/A
Visualization observer readout
Local Sidereal Time
09:24:48
Azimuth
Unknown
Elevation
Unknown
Doppler factor
Unknown
Orbital elements
Apogee altitude
561.928 km
Perigee altitude
560.142 km
Semi-major axis
6,939.172 km
Eccentricity
0.00013
Inclination
43.0023°
RAAN
136.5117°
Arg. of periapsis
265.4458°
True anomaly
94.6384°
Mean anomaly
94.6237°
Eccentric anomaly
94.63105°
Mean motion
3.75476 °/min
Orbital period
95.88 mins
BSTAR
0.00052919
Loading maneuver chart data...
Computing Atmospheric mass density...
Loading historical data...
Loading historical data...
Loading historical data...
Loading historical data...
Loading historical data...
Loading historical data...
Loading historical data...

Documentation

Showing up to 5 results
|